Погода в Шипицыно

Россия / Новосибирская область     56°04′31″N   77°17′52″E
темп.,
°C
ветер,
м/с
пор.,
м/с
влажн.,
%
обл.,
%
осадки,
мм/ч
давл.,
гПа
погр.,
м
12 мая, ср
ср1201:00+10ссв34460 0.0 102351
04:00+8с22510 0.0 102312
07:00+9сз1152100 0.0 102313
10:00+15з233597 0.0 1021453
13:00+19з3430100 0.0 10201207
16:00+20з6635100 0.0 10172376
19:00+20зсз3537100 0.0 10172081
22:00+14с61162100 0.6 1018668
13 мая, чт
чт1301:00+11с61272100 0.6 1019622
04:00+8ссз41072100 0.0 1019358
07:00+8ссз5116542 0.0 1020550
10:00+12ссз574546 0.0 10191071
13:00+15ссз5633100 0.0 10181576
16:00+17ссз5630100 0.0 10172003
19:00+16ссз573978 0.0 10171974
22:00+14ссз475384 0.0 1018472
14 мая, пт
пт1401:00+10ссз397719 0.0 1020219
04:00+8с5119157 0.0 1021416
07:00+7с598716 0.0 1024481
10:00+10с56590 0.0 1025810
13:00+15ссз56300 0.0 10251243
16:00+18сз56240 0.0 10241524
19:00+19зсз46260 0.0 10231396
22:00+14з47422 0.0 1023114
15 мая, сб
сб1501:00+12зюз4114887 0.0 1022178
04:00+13зюз4124770 0.0 1021237
07:00+13зюз5126093 0.3 1021291
10:00+19зюз58535 0.6 1020524
13:00+23з5542100 0.6 1019885
16:00+26з473496 0.0 10172756
19:00+17зсз111677100 1.9 10191048
22:00+15ююз3585100 3.6 101695
16 мая, вс
вс1601:00+15зсз118688 3.7 101516
04:00+13з3888100 0.0 1015158
07:00+14з31185100 0.0 1015296
10:00+19сз345865 0.1 1014363
13:00+25зсз46435 0.2 10131465
16:00+25сз6838100 0.0 10121948
19:00+25ссз6935100 0.0 10132756
22:00+18ссв335717 0.0 101537